Satellite: FO-70
Catalog number: 37380
Epoch time:      12264.21088706
Element set:    0292
Inclination:      071.9712 deg
RA of node:       102.9407 deg
Eccentricity:    0.0016856
Arg of perigee:   145.1543 deg
Mean anomaly:     215.0726 deg
Mean motion:   14.76919445 rev/day
Decay rate:       2.92e-06 rev/day^2
Epoch rev:           05001
Checksum:              289

Satellite: ALMASAT-1
Catalog number: 38078
Epoch time:      12264.70048037
Element set:     581
Inclination:      069.4762 deg
RA of node:       100.4424 deg
Eccentricity:    0.0743532
Arg of perigee:   129.0715 deg
Mean anomaly:     237.9195 deg
Mean motion:   14.12368769 rev/day
Decay rate:     2.2181e-04 rev/day^2
Epoch rev:            3102
Checksum:              294

Satellite: XATCOBEO
Catalog number: 38082
Epoch time:      12264.66083395
Element set:     563
Inclination:      069.4783 deg
RA of node:       095.6446 deg
Eccentricity:    0.0702473
Arg of perigee:   126.4542 deg
Mean anomaly:     240.3952 deg
Mean motion:   14.23797052 rev/day
Decay rate:     5.8001e-04 rev/day^2
Epoch rev:            3114
Checksum:              303

/EX
SB KEPS @ AMSAT  $ORB12264.W
Orbital Elements  12264.WEATHER

HR AMSAT ORBITAL ELEMENTS FOR WEATHER SATELLITES
FROM WA5QGD FORT WORTH,TX September 20, 2012
BID: ORB12264.W
TO ALL RADIO AMATEURS BT

Satellite: NOAA-10
Catalog number: 16969
Epoch time:      12264.69176688
Element set:      69
Inclination:      098.5772 deg
RA of node:       292.0188 deg
Eccentricity:    0.0011719
Arg of perigee:   319.2145 deg
Mean anomaly:     040.8157 deg
Mean motion:   14.27577169 rev/day
Decay rate:       -8.0e-08 rev/day^2
Epoch rev:           35349
Checksum:              344

Satellite: NOAA-11
Catalog number: 19531
Epoch time:      12264.32339215
Element set:      61
Inclination:      098.7296 deg
RA of node:       347.4658 deg
Eccentricity:    0.0010820
Arg of perigee:   317.4446 deg
Mean anomaly:     042.5878 deg
Mean motion:   14.14979982 rev/day
Decay rate:      -2.27e-06 rev/day^2
Epoch rev:           23796
Checksum:              326

Satellite: NOAA-12
Catalog number: 21263
Epoch time:      12264.64622166
Element set:     547
Inclination:      098.7245 deg
RA of node:       285.8447 deg
Eccentricity:    0.0013025
Arg of perigee:   286.0182 deg
Mean anomaly:     073.9558 deg
Mean motion:   14.25518415 rev/day
Decay rate:        4.8e-07 rev/day^2
Epoch rev:           11015
Checksum:              296

Satellite: MET-3/5
Catalog number: 21655
Epoch time:      12264.48875413
Element set:     508
Inclination:      082.5524 deg
RA of node:       084.8580 deg
Eccentricity:    0.0014453
Arg of perigee:   086.0039 deg
Mean anomaly:     274.2736 deg
Mean motion:   13.17043225 rev/day
Decay rate:      -2.89e-06 rev/day^2
Epoch rev:            1443
Checksum:              298

Satellite: MET-2/21
Catalog number: 22782
Epoch time:      12264.75193025
Element set:     532
Inclination:      082.5486 deg
RA of node:       316.6943 deg
Eccentricity:    0.0021016
Arg of perigee:   243.4588 deg
Mean anomaly:     116.4423 deg
Mean motion:   13.83688631 rev/day
Decay rate:        4.8e-07 rev/day^2
Epoch rev:           96238
Checksum:              311

Satellite: OKEAN-4
Catalog number: 23317
Epoch time:      12263.97700204
Element set:    0005
Inclination:      082.5401 deg
RA of node:       302.5809 deg
Eccentricity:    0.0023016
Arg of perigee:   043.0031 deg
Mean anomaly:     317.2979 deg
Mean motion:   14.83948400 rev/day
Decay rate:       5.31e-06 rev/day^2
Epoch rev:           96886
Checksum:              273

Satellite: NOAA-14
Catalog number: 23455
Epoch time:      12264.65287679
Element set:      27
Inclination:      098.8240 deg
RA of node:       346.9320 deg
Eccentricity:    0.0010322
Arg of perigee:   046.7470 deg
Mean anomaly:     313.4566 deg
Mean motion:   14.13870487 rev/day
Decay rate:       -1.1e-07 rev/day^2
Epoch rev:           91428
Checksum:              301

Satellite: NOAA-15
Catalog number: 25338
Epoch time:      12264.19158237
Element set:     407
Inclination:      098.7005 deg
RA of node:       250.2503 deg
Eccentricity:    0.0010456
Arg of perigee:   187.3498 deg
Mean anomaly:     172.7516 deg
Mean motion:   14.25119434 rev/day
Decay rate:       1.49e-06 rev/day^2
Epoch rev:           74638
Checksum:              306

Satellite: RESURS
Catalog number: 25394
Epoch time:      12263.95883827
Element set:    0217
Inclination:      098.3292 deg
RA of node:       247.2500 deg
Eccentricity:    0.0001506
Arg of perigee:   006.6629 deg
Mean anomaly:     353.4569 deg
Mean motion:   14.24296357 rev/day
Decay rate:        1.3e-07 rev/day^2
Epoch rev:           73789
Checksum:              317

Satellite: FENGYUN1
Catalog number: 25730
Epoch time:      12263.89829852
Element set:    0713
Inclination:      098.8525 deg
RA of node:       221.2707 deg
Eccentricity:    0.0020350
Arg of perigee:   087.7185 deg
Mean anomaly:     272.6296 deg
Mean motion:   14.09745082 rev/day
Decay rate:       1.22e-06 rev/day^2
Epoch rev:           68795
Checksum:              321

Satellite: OKEAN-0
Catalog number: 25860
Epoch time:      12263.94184177
Element set:    0762
Inclination:      097.9474 deg
RA of node:       224.7093 deg
Eccentricity:    0.0000888
Arg of perigee:   042.5837 deg
Mean anomaly:     317.5438 deg
Mean motion:   14.74300927 rev/day
Decay rate:       3.45e-06 rev/day^2
Epoch rev:           70853
Checksum:              324

Satellite: NOAA-16
Catalog number: 26536
Epoch time:      12264.22252652
Element set:     896
Inclination:      099.0843 deg
RA of node:       307.7708 deg
Eccentricity:    0.0010659
Arg of perigee:   172.3830 deg
Mean anomaly:     187.7496 deg
Mean motion:   14.12781288 rev/day
Decay rate:       -3.7e-07 rev/day^2
Epoch rev:           61845
Checksum:              333

Satellite: NOAA-17
Catalog number: 27453
Epoch time:      12264.27069534
Element set:     841
Inclination:      098.3302 deg
RA of node:       286.4825 deg
Eccentricity:    0.0010853
Arg of perigee:   235.2997 deg
Mean anomaly:     124.7158 deg
Mean motion:   14.24482219 rev/day
Decay rate:       -3.2e-07 rev/day^2
Epoch rev:           53229
Checksum:              310

Satellite: NOAA-18
Catalog number: 28654
Epoch time:      12264.32401044
Element set:     323
Inclination:      099.0574 deg
RA of node:       223.2551 deg
Eccentricity:    0.0013443
Arg of perigee:   246.7041 deg
Mean anomaly:     113.2736 deg
Mean motion:   14.11699173 rev/day
Decay rate:       -4.7e-07 rev/day^2
Epoch rev:           37798
Checksum:              290

Satellite: NOAA-19
Catalog number: 33591
Epoch time:      12264.35334929
Element set:     512
Inclination:      098.8703 deg
RA of node:       202.9893 deg
Eccentricity:    0.0014877
Arg of perigee:   109.9323 deg
Mean anomaly:     250.3459 deg
Mean motion:   14.11385264 rev/day
Decay rate:      -1.20e-06 rev/day^2
Epoch rev:           18643
Checksum:              313

/EX
SB KEPS @ AMSAT  $ORB12264.M
Orbital Elements  12264.MISC

HR AMSAT ORBITAL ELEMENTS FOR MANNED AND MISCELLANEOUS SATELLITES
FROM WA5QGD FORT WORTH,TX September 20, 2012
BID: ORB12264.M
TO ALL RADIO AMATEURS BT

Satellite: HUBBLE
Catalog number: 20580
Epoch time:      12263.23787721
Element set:      73
Inclination:      028.4694 deg
RA of node:       247.9511 deg
Eccentricity:    0.0002992
Arg of perigee:   341.4422 deg
Mean anomaly:     018.6077 deg
Mean motion:   15.02787815 rev/day
Decay rate:      1.168e-05 rev/day^2
Epoch rev:            2889
Checksum:              304

Satellite: ISS
Catalog number: 25544
Epoch time:      12264.85068697
Element set:     337
Inclination:      051.6501 deg
RA of node:       005.8241 deg
Eccentricity:    0.0018299
Arg of perigee:   083.4530 deg
Mean anomaly:     012.3090 deg
Mean motion:   15.49986975 rev/day
Decay rate:     1.2477e-04 rev/day^2
Epoch rev:           79288
Checksum:              327

Satellite: CO-58
Catalog number: 28895
Epoch time:      12263.61520876
Element set:    0281
Inclination:      097.9006 deg
RA of node:       125.6737 deg
Eccentricity:    0.0016729
Arg of perigee:   211.7931 deg
Mean anomaly:     148.2277 deg
Mean motion:   14.60745436 rev/day
Decay rate:       4.82e-06 rev/day^2
Epoch rev:           36744
Checksum:              335

Satellite: FALCON
Catalog number: 30776
Epoch time:      12264.80038212
Element set:     441
Inclination:      035.4321 deg
RA of node:       052.5540 deg
Eccentricity:    0.0001251
Arg of perigee:   094.2947 deg
Mean anomaly:     265.7915 deg
Mean motion:   15.08211491 rev/day
Decay rate:      3.022e-05 rev/day^2
Epoch rev:           30469
Checksum:              258

Satellite: MAST
Catalog number: 31126
Epoch time:      12264.58877668
Element set:     562
Inclination:      097.8758 deg
RA of node:       270.1207 deg
Eccentricity:    0.0093599
Arg of perigee:   172.6549 deg
Mean anomaly:     187.6046 deg
Mean motion:   14.54253593 rev/day
Decay rate:       1.96e-06 rev/day^2
Epoch rev:           28813
Checksum:              348

Satellite: CAPE1
Catalog number: 31130
Epoch time:      12264.49701181
Element set:     572
Inclination:      097.8856 deg
RA of node:       266.3713 deg
Eccentricity:    0.0101125
Arg of perigee:   186.8348 deg
Mean anomaly:     173.1481 deg
Mean motion:   14.53065437 rev/day
Decay rate:       2.75e-06 rev/day^2
Epoch rev:           28761
Checksum:              298

Satellite: COMPASS
Catalog number: 32787
Epoch time:      12263.65806792
Element set:    0415
Inclination:      097.7921 deg
RA of node:       322.8746 deg
Eccentricity:    0.0016148
Arg of perigee:   109.2989 deg
Mean anomaly:     250.9980 deg
Mean motion:   14.84335641 rev/day
Decay rate:      1.166e-05 rev/day^2
Epoch rev:           23782
Checksum:              335

